Regional Weather Roundup
Issued by NWS

Home | Current Version | Previous Version | Text Only | Print | Product List | Glossary Off
Versions: 1 2 3 4 5 6 7 8 9 10 11 12 13 14 15 16 17 18 19 20 21 22 23 24 25 26 27 28 29 30 31 32 33 34 35 36 37 38 39 40 41 42 43 44 45 46 47 48 49 50

000
ASUS45 KBOU 252107
RWRCO

WEATHER ROUNDUP FOR COLORADO
NATIONAL WEATHER SERVICE DENVER/BOULDER CO
300 PM MDT FRI JUL 25 2014

NOTE: "FAIR" INDICATES FEW OR NO CLOUDS BELOW 12000 FEET WITH NO
SIGNIFICANT WEATHER AND/OR OBSTRUCTIONS TO VISIBILITY.

COZ001>005-013-030-031-252200-
...NORTHWEST COLORADO...

CITY           SKY/WX    TMP DP  RH WIND       PRES   REMARKS
CRAIG          PTSUNNY   80  48  32 SW16G29   30.15F
HAYDEN         PTSUNNY   75  45  33 NW3       30.21R
MEEKER         PTSUNNY   79  46  31 MISG      30.18S THUNDER HAZE
MOUNT WERNER   NOT AVBL
STEAMBOAT SPGS PTSUNNY   78  48  34 W6        30.24R
WALDEN         PTSUNNY   77  37  24 SW8G23    30.30S
$$

COZ006>008-011-252200-
...WEST CENTRAL VALLEYS...

CITY           SKY/WX    TMP DP  RH WIND       PRES   REMARKS
GRAND JUNCTION TSTM      73  59  61 S8        30.13S
MONTROSE       CLOUDY    85  52  32 NW9       30.20F
EAGLE          MOSUNNY   84  46  26 SW15      30.21F
RIFLE          PTSUNNY   87  45  23 W28G35    30.12F
DELTA          CLOUDY    89  49  25 SW8       30.15S
NUCLA          CLOUDY    86  45  23 W8        30.25F
$$

COZ017>023-064>068-252200-
...SOUTHWEST COLORADO...

CITY           SKY/WX    TMP DP  RH WIND       PRES   REMARKS
DURANGO        PTSUNNY   88  45  22 W13G20    30.24F
CORTEZ         SUNNY     91  44  19 NW14G23   30.19F
PAGOSA SPRINGS MOSUNNY   85  38  18 SW16G24   30.32F THUNDER
TELLURIDE      PTSUNNY   70  52  52 CALM      30.46F
WOLF CREEK PAS NOT AVBL
$$

COZ009-010-012-014-032>034-037-058>063-252200-
...CENTRAL COLORADO...

CITY           SKY/WX    TMP DP  RH WIND       PRES   REMARKS
ASPEN          MOSUNNY   83  43  24 N9        30.30F
BUENA VISTA    CLOUDY    76  41  28 E13G21    30.34R
COPPER MTN     CLOUDY    63  41  45 W15G21    30.68S
BERTHOUD PASS  FAIR      55  41  58 MISG      30.71F
COTTONWOOD PAS PTSUNNY   72  37  28 CALM      30.50S
GUNNISON       PTSUNNY   73  50  43 N9        30.35F
KREMMLING      MOSUNNY   84  36  17 W3        30.26F
LEADVILLE      PTSUNNY   69  42  37 S10       30.48F
MONARCH PASS   PTSUNNY   63  37  39 W17G30    30.78S
SALIDA         PTSUNNY   80  48  33 N17G24    30.35R
SUNLIGHT       PTSUNNY   64  48  55 CALM      30.59F THUNDER
WILKERSON PASS NOT AVBL
$$

COZ069>075-252200-
...SAN LUIS VALLEY/SANGRE DE CRISTO MOUNTAINS...

CITY           SKY/WX    TMP DP  RH WIND       PRES   REMARKS
ALAMOSA        MOSUNNY   81  44  27 NW8       30.30S
LA VETA PASS   MOSUNNY   77  41  27 SW12      30.52S
SAGUACHE       PTSUNNY   81  43  26 W6        30.32S
$$

COZ035-036-038>040-252200-
...NORTHERN COLORADO FRONT RANGE...

CITY           SKY/WX    TMP DP  RH WIND       PRES   REMARKS
DENVER INTL AP PTSUNNY   89  41  18 W9        30.07F THUNDER
DMNS CITY PARK   N/A     83  50  31 SE5G13    30.10R
AURORA         TSTM      73  59  60 W25G33    30.14R
FRONT RANGE AP NOT AVBL
ERIE MUNI ARPT CLOUDY    91  42  18 S13G22    30.04F
BOULDER MUN AP CLOUDY    90  50  25 S10       30.05F
CENTENNIAL     TSTM      80  48  32 N18       30.13R
BROOMFIELD     PTSUNNY   90  43  19 SE6       30.11F
FORT COLLINS   PTSUNNY   90  54  29 SE14      30.01S
LONGMONT       PTSUNNY   91  48  23 S13       30.04F
$$

COZ041-046-047-076>085-087-088-252200-
...PIKES PEAK/PALMER DIVIDE AND SOUTHERN FOOTHILLS...

CITY           SKY/WX    TMP DP  RH WIND       PRES   REMARKS
COLO. SPRINGS  PTSUNNY   85  44  23 S8        30.16F THUNDER
A. F. ACADEMY  MOSUNNY   85  46  25 SE10      30.17F
ELLICOTT       MOSUNNY   89  41  18 S15       30.14F
FALCON         MOSUNNY   84  45  25 CALM      30.22F
FORT CARSON    RAIN      70  55  60 W13G25    30.14R
LIMON          MOSUNNY   93  36  13 E7        30.08F
MONUMENT HILL  PTSUNNY   81  43  26 SE7       30.22F
TRINIDAD       PTSUNNY   94  44  17 N9        30.09F
$$

COZ042>045-048>051-090-091-252200-
...NORTHEAST COLORADO...

CITY           SKY/WX    TMP DP  RH WIND       PRES   REMARKS
GREELEY ARPT   PTSUNNY   90  54  29 E8        30.01F
AKRON          MOSUNNY   94  46  19 VRB7      30.02F
BURLINGTON     SUNNY     94  55  26 NE14G20   29.99F
WRAY             N/A     96  51  22 NE9       29.96F
STERLING       MOSUNNY   91  61  35 NE7       29.97F
HOLYOKE        MOSUNNY   95  59  30 E8        29.96F
FORT MORGAN    MOSUNNY   93  52  25 SE9       30.01F
$$

COZ086-089-092>099-252200-
...SOUTHEAST COLORADO...

CITY           SKY/WX    TMP DP  RH WIND       PRES   REMARKS
PUEBLO         MOSUNNY   98  46  17 SE10      30.00F
LA JUNTA       SUNNY     99  48  17 E5        29.95F
LAMAR          SUNNY    101  48  16 MISG      29.90F
SPRINGFIELD      N/A     99  48  17 SE10      29.96F
$$


USA.gov is the U.S. government's official web portal to all federal, state and local government web resources and services.